Index of /20260414/WXO-DD/model_gdps/15km/12/048
Name Last modified Size Description
Parent Directory -
20260414T12Z_MSC_GDPS_AbsoluteVorticity_IsbL-0200_LatLon0.15_PT048H.grib2 2026-04-14 16:13 1.2M
20260414T12Z_MSC_GDPS_AbsoluteVorticity_IsbL-0250_LatLon0.15_PT048H.grib2 2026-04-14 16:13 1.3M
20260414T12Z_MSC_GDPS_AbsoluteVorticity_IsbL-0500_LatLon0.15_PT048H.grib2 2026-04-14 16:13 1.2M
20260414T12Z_MSC_GDPS_AbsoluteVorticity_IsbL-0700_LatLon0.15_PT048H.grib2 2026-04-14 16:13 1.3M
20260414T12Z_MSC_GDPS_AbsoluteVorticity_IsbL-0850_LatLon0.15_PT048H.grib2 2026-04-14 16:13 1.6M
20260414T12Z_MSC_GDPS_AirTemp-Max_AGL-2m_LatLon0.15_PT048H.grib2 2026-04-14 16:13 744K
20260414T12Z_MSC_GDPS_AirTemp-Min_AGL-2m_LatLon0.15_PT048H.grib2 2026-04-14 16:14 790K
20260414T12Z_MSC_GDPS_AirTemp_AGL-120m_LatLon0.15_PT048H.grib2 2026-04-14 16:13 911K
20260414T12Z_MSC_GDPS_AirTemp_AGL-2m_LatLon0.15_PT048H.grib2 2026-04-14 16:14 1.0M
20260414T12Z_MSC_GDPS_AirTemp_AGL-40m_LatLon0.15_PT048H.grib2 2026-04-14 16:13 813K
20260414T12Z_MSC_GDPS_AirTemp_AGL-80m_LatLon0.15_PT048H.grib2 2026-04-14 16:14 919K
20260414T12Z_MSC_GDPS_AirTemp_IsbL-0001_LatLon0.15_PT048H.grib2 2026-04-14 16:13 695K
20260414T12Z_MSC_GDPS_AirTemp_IsbL-0005_LatLon0.15_PT048H.grib2 2026-04-14 16:14 684K
20260414T12Z_MSC_GDPS_AirTemp_IsbL-0010_LatLon0.15_PT048H.grib2 2026-04-14 16:13 758K
20260414T12Z_MSC_GDPS_AirTemp_IsbL-0020_LatLon0.15_PT048H.grib2 2026-04-14 16:13 700K
20260414T12Z_MSC_GDPS_AirTemp_IsbL-0030_LatLon0.15_PT048H.grib2 2026-04-14 16:13 752K
20260414T12Z_MSC_GDPS_AirTemp_IsbL-0050_LatLon0.15_PT048H.grib2 2026-04-14 16:13 818K
20260414T12Z_MSC_GDPS_AirTemp_IsbL-0100_LatLon0.15_PT048H.grib2 2026-04-14 16:13 953K
20260414T12Z_MSC_GDPS_AirTemp_IsbL-0150_LatLon0.15_PT048H.grib2 2026-04-14 16:13 963K
20260414T12Z_MSC_GDPS_AirTemp_IsbL-0175_LatLon0.15_PT048H.grib2 2026-04-14 16:13 951K
20260414T12Z_MSC_GDPS_AirTemp_IsbL-0200_LatLon0.15_PT048H.grib2 2026-04-14 16:13 965K
20260414T12Z_MSC_GDPS_AirTemp_IsbL-0225_LatLon0.15_PT048H.grib2 2026-04-14 16:13 972K
20260414T12Z_MSC_GDPS_AirTemp_IsbL-0250_LatLon0.15_PT048H.grib2 2026-04-14 16:13 1.0M
20260414T12Z_MSC_GDPS_AirTemp_IsbL-0275_LatLon0.15_PT048H.grib2 2026-04-14 16:13 939K
20260414T12Z_MSC_GDPS_AirTemp_IsbL-0300_LatLon0.15_PT048H.grib2 2026-04-14 16:14 952K
20260414T12Z_MSC_GDPS_AirTemp_IsbL-0350_LatLon0.15_PT048H.grib2 2026-04-14 16:13 930K
20260414T12Z_MSC_GDPS_AirTemp_IsbL-0400_LatLon0.15_PT048H.grib2 2026-04-14 16:13 941K
20260414T12Z_MSC_GDPS_AirTemp_IsbL-0450_LatLon0.15_PT048H.grib2 2026-04-14 16:13 961K
20260414T12Z_MSC_GDPS_AirTemp_IsbL-0500_LatLon0.15_PT048H.grib2 2026-04-14 16:13 1.0M
20260414T12Z_MSC_GDPS_AirTemp_IsbL-0550_LatLon0.15_PT048H.grib2 2026-04-14 16:13 796K
20260414T12Z_MSC_GDPS_AirTemp_IsbL-0600_LatLon0.15_PT048H.grib2 2026-04-14 16:13 890K
20260414T12Z_MSC_GDPS_AirTemp_IsbL-0650_LatLon0.15_PT048H.grib2 2026-04-14 16:14 918K
20260414T12Z_MSC_GDPS_AirTemp_IsbL-0700_LatLon0.15_PT048H.grib2 2026-04-14 16:13 954K
20260414T12Z_MSC_GDPS_AirTemp_IsbL-0750_LatLon0.15_PT048H.grib2 2026-04-14 16:13 1.0M
20260414T12Z_MSC_GDPS_AirTemp_IsbL-0800_LatLon0.15_PT048H.grib2 2026-04-14 16:13 1.1M
20260414T12Z_MSC_GDPS_AirTemp_IsbL-0850_LatLon0.15_PT048H.grib2 2026-04-14 16:13 1.1M
20260414T12Z_MSC_GDPS_AirTemp_IsbL-0875_LatLon0.15_PT048H.grib2 2026-04-14 16:13 1.2M
20260414T12Z_MSC_GDPS_AirTemp_IsbL-0900_LatLon0.15_PT048H.grib2 2026-04-14 16:13 1.2M
20260414T12Z_MSC_GDPS_AirTemp_IsbL-0925_LatLon0.15_PT048H.grib2 2026-04-14 16:13 1.1M
20260414T12Z_MSC_GDPS_AirTemp_IsbL-0950_LatLon0.15_PT048H.grib2 2026-04-14 16:13 1.1M
20260414T12Z_MSC_GDPS_AirTemp_IsbL-0970_LatLon0.15_PT048H.grib2 2026-04-14 16:13 1.2M
20260414T12Z_MSC_GDPS_AirTemp_IsbL-0985_LatLon0.15_PT048H.grib2 2026-04-14 16:13 1.1M
20260414T12Z_MSC_GDPS_AirTemp_IsbL-1000_LatLon0.15_PT048H.grib2 2026-04-14 16:13 1.1M
20260414T12Z_MSC_GDPS_AirTemp_IsbL-1015_LatLon0.15_PT048H.grib2 2026-04-14 16:13 1.1M
20260414T12Z_MSC_GDPS_Albedo_Sfc_LatLon0.15_PT048H.grib2 2026-04-14 16:13 243K
20260414T12Z_MSC_GDPS_CAPE_Sfc_LatLon0.15_PT048H.grib2 2026-04-14 16:14 4.0M
20260414T12Z_MSC_GDPS_CIN_Sfc_LatLon0.15_PT048H.grib2 2026-04-14 16:14 2.9M
20260414T12Z_MSC_GDPS_CloudWater_EAtm_LatLon0.15_PT048H.grib2 2026-04-14 16:13 527K
20260414T12Z_MSC_GDPS_ConvectivePrecip-Accum_Sfc_LatLon0.15_PT048H.grib2 2026-04-14 16:14 2.6M
20260414T12Z_MSC_GDPS_DewPointDepression_AGL-2m_LatLon0.15_PT048H.grib2 2026-04-14 16:13 751K
20260414T12Z_MSC_GDPS_DewPointDepression_IsbL-0010_LatLon0.15_PT048H.grib2 2026-04-14 16:13 15K
20260414T12Z_MSC_GDPS_DewPointDepression_IsbL-0020_LatLon0.15_PT048H.grib2 2026-04-14 16:13 50K
20260414T12Z_MSC_GDPS_DewPointDepression_IsbL-0030_LatLon0.15_PT048H.grib2 2026-04-14 16:13 66K
20260414T12Z_MSC_GDPS_DewPointDepression_IsbL-0050_LatLon0.15_PT048H.grib2 2026-04-14 16:13 357K
20260414T12Z_MSC_GDPS_DewPointDepression_IsbL-0100_LatLon0.15_PT048H.grib2 2026-04-14 16:13 378K
20260414T12Z_MSC_GDPS_DewPointDepression_IsbL-0150_LatLon0.15_PT048H.grib2 2026-04-14 16:13 456K
20260414T12Z_MSC_GDPS_DewPointDepression_IsbL-0175_LatLon0.15_PT048H.grib2 2026-04-14 16:13 527K
20260414T12Z_MSC_GDPS_DewPointDepression_IsbL-0200_LatLon0.15_PT048H.grib2 2026-04-14 16:13 620K
20260414T12Z_MSC_GDPS_DewPointDepression_IsbL-0225_LatLon0.15_PT048H.grib2 2026-04-14 16:14 758K
20260414T12Z_MSC_GDPS_DewPointDepression_IsbL-0250_LatLon0.15_PT048H.grib2 2026-04-14 16:13 877K
20260414T12Z_MSC_GDPS_DewPointDepression_IsbL-0275_LatLon0.15_PT048H.grib2 2026-04-14 16:13 901K
20260414T12Z_MSC_GDPS_DewPointDepression_IsbL-0300_LatLon0.15_PT048H.grib2 2026-04-14 16:13 941K
20260414T12Z_MSC_GDPS_DewPointDepression_IsbL-0350_LatLon0.15_PT048H.grib2 2026-04-14 16:13 972K
20260414T12Z_MSC_GDPS_DewPointDepression_IsbL-0400_LatLon0.15_PT048H.grib2 2026-04-14 16:13 1.0M
20260414T12Z_MSC_GDPS_DewPointDepression_IsbL-0450_LatLon0.15_PT048H.grib2 2026-04-14 16:13 1.0M
20260414T12Z_MSC_GDPS_DewPointDepression_IsbL-0500_LatLon0.15_PT048H.grib2 2026-04-14 16:13 1.0M
20260414T12Z_MSC_GDPS_DewPointDepression_IsbL-0550_LatLon0.15_PT048H.grib2 2026-04-14 16:13 1.1M
20260414T12Z_MSC_GDPS_DewPointDepression_IsbL-0600_LatLon0.15_PT048H.grib2 2026-04-14 16:14 1.1M
20260414T12Z_MSC_GDPS_DewPointDepression_IsbL-0650_LatLon0.15_PT048H.grib2 2026-04-14 16:13 1.1M
20260414T12Z_MSC_GDPS_DewPointDepression_IsbL-0700_LatLon0.15_PT048H.grib2 2026-04-14 16:13 1.1M
20260414T12Z_MSC_GDPS_DewPointDepression_IsbL-0750_LatLon0.15_PT048H.grib2 2026-04-14 16:13 1.1M
20260414T12Z_MSC_GDPS_DewPointDepression_IsbL-0800_LatLon0.15_PT048H.grib2 2026-04-14 16:13 1.2M
20260414T12Z_MSC_GDPS_DewPointDepression_IsbL-0850_LatLon0.15_PT048H.grib2 2026-04-14 16:13 1.1M
20260414T12Z_MSC_GDPS_DewPointDepression_IsbL-0875_LatLon0.15_PT048H.grib2 2026-04-14 16:13 1.1M
20260414T12Z_MSC_GDPS_DewPointDepression_IsbL-0900_LatLon0.15_PT048H.grib2 2026-04-14 16:13 1.1M
20260414T12Z_MSC_GDPS_DewPointDepression_IsbL-0925_LatLon0.15_PT048H.grib2 2026-04-14 16:13 1.0M
20260414T12Z_MSC_GDPS_DewPointDepression_IsbL-0950_LatLon0.15_PT048H.grib2 2026-04-14 16:13 1.0M
20260414T12Z_MSC_GDPS_DewPointDepression_IsbL-0970_LatLon0.15_PT048H.grib2 2026-04-14 16:13 1.0M
20260414T12Z_MSC_GDPS_DewPointDepression_IsbL-0985_LatLon0.15_PT048H.grib2 2026-04-14 16:13 1.0M
20260414T12Z_MSC_GDPS_DewPointDepression_IsbL-1000_LatLon0.15_PT048H.grib2 2026-04-14 16:13 970K
20260414T12Z_MSC_GDPS_DewPointDepression_IsbL-1015_LatLon0.15_PT048H.grib2 2026-04-14 16:13 914K
20260414T12Z_MSC_GDPS_DewPoint_AGL-2m_LatLon0.15_PT048H.grib2 2026-04-14 16:13 617K
20260414T12Z_MSC_GDPS_DownwardLongwaveRadiationFlux-Accum_Sfc_LatLon0.15_PT048H.grib2 2026-04-14 16:13 785K
20260414T12Z_MSC_GDPS_DownwardShortwaveRadiationFlux-Accum_NTAtm_LatLon0.15_PT048H.grib2 2026-04-14 16:13 230K
20260414T12Z_MSC_GDPS_DownwardShortwaveRadiationFlux-Accum_Sfc_LatLon0.15_PT048H.grib2 2026-04-14 16:13 1.0M
20260414T12Z_MSC_GDPS_FreezingRain-Accum12h_Sfc_LatLon0.15_PT048H.grib2 2026-04-14 16:13 73K
20260414T12Z_MSC_GDPS_FreezingRain-Accum1h_Sfc_LatLon0.15_PT048H.grib2 2026-04-14 16:13 41K
20260414T12Z_MSC_GDPS_FreezingRain-Accum24h_Sfc_LatLon0.15_PT048H.grib2 2026-04-14 16:13 112K
20260414T12Z_MSC_GDPS_FreezingRain-Accum3h_Sfc_LatLon0.15_PT048H.grib2 2026-04-14 16:13 41K
20260414T12Z_MSC_GDPS_FreezingRain-Accum6h_Sfc_LatLon0.15_PT048H.grib2 2026-04-14 16:14 58K
20260414T12Z_MSC_GDPS_FreezingRain-Accum_Sfc_LatLon0.15_PT048H.grib2 2026-04-14 16:13 174K
20260414T12Z_MSC_GDPS_GeopotentialHeight_IsbL-0001_LatLon0.15_PT048H.grib2 2026-04-14 16:13 545K
20260414T12Z_MSC_GDPS_GeopotentialHeight_IsbL-0005_LatLon0.15_PT048H.grib2 2026-04-14 16:14 509K
20260414T12Z_MSC_GDPS_GeopotentialHeight_IsbL-0010_LatLon0.15_PT048H.grib2 2026-04-14 16:13 585K
20260414T12Z_MSC_GDPS_GeopotentialHeight_IsbL-0020_LatLon0.15_PT048H.grib2 2026-04-14 16:14 582K
20260414T12Z_MSC_GDPS_GeopotentialHeight_IsbL-0030_LatLon0.15_PT048H.grib2 2026-04-14 16:13 587K
20260414T12Z_MSC_GDPS_GeopotentialHeight_IsbL-0050_LatLon0.15_PT048H.grib2 2026-04-14 16:13 516K
20260414T12Z_MSC_GDPS_GeopotentialHeight_IsbL-0100_LatLon0.15_PT048H.grib2 2026-04-14 16:13 615K
20260414T12Z_MSC_GDPS_GeopotentialHeight_IsbL-0150_LatLon0.15_PT048H.grib2 2026-04-14 16:14 629K
20260414T12Z_MSC_GDPS_GeopotentialHeight_IsbL-0175_LatLon0.15_PT048H.grib2 2026-04-14 16:13 631K
20260414T12Z_MSC_GDPS_GeopotentialHeight_IsbL-0200_LatLon0.15_PT048H.grib2 2026-04-14 16:13 635K
20260414T12Z_MSC_GDPS_GeopotentialHeight_IsbL-0225_LatLon0.15_PT048H.grib2 2026-04-14 16:13 632K
20260414T12Z_MSC_GDPS_GeopotentialHeight_IsbL-0250_LatLon0.15_PT048H.grib2 2026-04-14 16:13 638K
20260414T12Z_MSC_GDPS_GeopotentialHeight_IsbL-0275_LatLon0.15_PT048H.grib2 2026-04-14 16:13 640K
20260414T12Z_MSC_GDPS_GeopotentialHeight_IsbL-0300_LatLon0.15_PT048H.grib2 2026-04-14 16:14 639K
20260414T12Z_MSC_GDPS_GeopotentialHeight_IsbL-0350_LatLon0.15_PT048H.grib2 2026-04-14 16:13 631K
20260414T12Z_MSC_GDPS_GeopotentialHeight_IsbL-0400_LatLon0.15_PT048H.grib2 2026-04-14 16:13 618K
20260414T12Z_MSC_GDPS_GeopotentialHeight_IsbL-0450_LatLon0.15_PT048H.grib2 2026-04-14 16:13 537K
20260414T12Z_MSC_GDPS_GeopotentialHeight_IsbL-0500_LatLon0.15_PT048H.grib2 2026-04-14 16:13 527K
20260414T12Z_MSC_GDPS_GeopotentialHeight_IsbL-0550_LatLon0.15_PT048H.grib2 2026-04-14 16:13 687K
20260414T12Z_MSC_GDPS_GeopotentialHeight_IsbL-0600_LatLon0.15_PT048H.grib2 2026-04-14 16:13 683K
20260414T12Z_MSC_GDPS_GeopotentialHeight_IsbL-0650_LatLon0.15_PT048H.grib2 2026-04-14 16:13 682K
20260414T12Z_MSC_GDPS_GeopotentialHeight_IsbL-0700_LatLon0.15_PT048H.grib2 2026-04-14 16:13 680K
20260414T12Z_MSC_GDPS_GeopotentialHeight_IsbL-0750_LatLon0.15_PT048H.grib2 2026-04-14 16:13 685K
20260414T12Z_MSC_GDPS_GeopotentialHeight_IsbL-0800_LatLon0.15_PT048H.grib2 2026-04-14 16:13 700K
20260414T12Z_MSC_GDPS_GeopotentialHeight_IsbL-0850_LatLon0.15_PT048H.grib2 2026-04-14 16:13 711K
20260414T12Z_MSC_GDPS_GeopotentialHeight_IsbL-0875_LatLon0.15_PT048H.grib2 2026-04-14 16:13 712K
20260414T12Z_MSC_GDPS_GeopotentialHeight_IsbL-0900_LatLon0.15_PT048H.grib2 2026-04-14 16:13 723K
20260414T12Z_MSC_GDPS_GeopotentialHeight_IsbL-0925_LatLon0.15_PT048H.grib2 2026-04-14 16:13 727K
20260414T12Z_MSC_GDPS_GeopotentialHeight_IsbL-0950_LatLon0.15_PT048H.grib2 2026-04-14 16:13 738K
20260414T12Z_MSC_GDPS_GeopotentialHeight_IsbL-0970_LatLon0.15_PT048H.grib2 2026-04-14 16:13 749K
20260414T12Z_MSC_GDPS_GeopotentialHeight_IsbL-0985_LatLon0.15_PT048H.grib2 2026-04-14 16:14 766K
20260414T12Z_MSC_GDPS_GeopotentialHeight_IsbL-1000_LatLon0.15_PT048H.grib2 2026-04-14 16:13 786K
20260414T12Z_MSC_GDPS_GeopotentialHeight_IsbL-1015_LatLon0.15_PT048H.grib2 2026-04-14 16:14 809K
20260414T12Z_MSC_GDPS_Humidex_Sfc_LatLon0.15_PT048H.grib2 2026-04-14 16:13 5.3M
20260414T12Z_MSC_GDPS_IcePellets-Accum12h_Sfc_LatLon0.15_PT048H.grib2 2026-04-14 16:14 39K
20260414T12Z_MSC_GDPS_IcePellets-Accum1h_Sfc_LatLon0.15_PT048H.grib2 2026-04-14 16:14 11K
20260414T12Z_MSC_GDPS_IcePellets-Accum24h_Sfc_LatLon0.15_PT048H.grib2 2026-04-14 16:14 54K
20260414T12Z_MSC_GDPS_IcePellets-Accum3h_Sfc_LatLon0.15_PT048H.grib2 2026-04-14 16:13 16K
20260414T12Z_MSC_GDPS_IcePellets-Accum6h_Sfc_LatLon0.15_PT048H.grib2 2026-04-14 16:13 27K
20260414T12Z_MSC_GDPS_IcePellets-Accum_Sfc_LatLon0.15_PT048H.grib2 2026-04-14 16:13 77K
20260414T12Z_MSC_GDPS_KIndex_Sfc_LatLon0.15_PT048H.grib2 2026-04-14 16:13 6.5M
20260414T12Z_MSC_GDPS_LatentHeatNetFlux_Sfc_LatLon0.15_PT048H.grib2 2026-04-14 16:14 531K
20260414T12Z_MSC_GDPS_LiftedIndex-MU-VT_IsbL-0500_LatLon0.15_PT048H.grib2 2026-04-14 16:13 5.4M
20260414T12Z_MSC_GDPS_NetLongwaveRadiationFlux-Accum_Sfc_LatLon0.15_PT048H.grib2 2026-04-14 16:13 1.1M
20260414T12Z_MSC_GDPS_NetShortwaveRadiationFlux-Accum_Sfc_LatLon0.15_PT048H.grib2 2026-04-14 16:13 1.0M
20260414T12Z_MSC_GDPS_O3MixingRatio_LatLon0.15_PT048H.grib2 2026-04-14 16:55 2.3M
20260414T12Z_MSC_GDPS_O3_EAtm_LatLon0.15_PT048H.grib2 2026-04-14 16:55 2.1M
20260414T12Z_MSC_GDPS_PlanetaryBoundaryLayerHeight_Sfc_LatLon0.15_PT048H.grib2 2026-04-14 16:13 2.5M
20260414T12Z_MSC_GDPS_Precip-Accum12h_Sfc_LatLon0.15_PT048H.grib2 2026-04-14 16:13 4.0M
20260414T12Z_MSC_GDPS_Precip-Accum1h_Sfc_LatLon0.15_PT048H.grib2 2026-04-14 16:13 3.2M
20260414T12Z_MSC_GDPS_Precip-Accum24h_Sfc_LatLon0.15_PT048H.grib2 2026-04-14 16:13 4.5M
20260414T12Z_MSC_GDPS_Precip-Accum3h_Sfc_LatLon0.15_PT048H.grib2 2026-04-14 16:13 3.5M
20260414T12Z_MSC_GDPS_Precip-Accum6h_Sfc_LatLon0.15_PT048H.grib2 2026-04-14 16:13 3.8M
20260414T12Z_MSC_GDPS_Precip-Accum_Sfc_LatLon0.15_PT048H.grib2 2026-04-14 16:13 4.8M
20260414T12Z_MSC_GDPS_PrecipRate_Sfc_LatLon0.15_PT048H.grib2 2026-04-14 16:13 3.1M
20260414T12Z_MSC_GDPS_PrecipType-Instant_Sfc_LatLon0.15_PT048H.grib2 2026-04-14 16:13 1.6M
20260414T12Z_MSC_GDPS_Pressure_MSL_LatLon0.15_PT048H.grib2 2026-04-14 16:13 722K
20260414T12Z_MSC_GDPS_Pressure_PVU-1.5_LatLon0.15_PT048H.grib2 2026-04-14 16:14 5.8M
20260414T12Z_MSC_GDPS_Pressure_PVU-1_LatLon0.15_PT048H.grib2 2026-04-14 16:13 6.0M
20260414T12Z_MSC_GDPS_Pressure_PVU-2_LatLon0.15_PT048H.grib2 2026-04-14 16:13 6.0M
20260414T12Z_MSC_GDPS_Pressure_Sfc_LatLon0.15_PT048H.grib2 2026-04-14 16:14 1.1M
20260414T12Z_MSC_GDPS_RadiativeTemp_Sfc_LatLon0.15_PT048H.grib2 2026-04-14 16:13 675K
20260414T12Z_MSC_GDPS_Rain-Accum12h_Sfc_LatLon0.15_PT048H.grib2 2026-04-14 16:13 2.7M
20260414T12Z_MSC_GDPS_Rain-Accum1h_Sfc_LatLon0.15_PT048H.grib2 2026-04-14 16:14 1.7M
20260414T12Z_MSC_GDPS_Rain-Accum24h_Sfc_LatLon0.15_PT048H.grib2 2026-04-14 16:13 3.1M
20260414T12Z_MSC_GDPS_Rain-Accum3h_Sfc_LatLon0.15_PT048H.grib2 2026-04-14 16:13 1.7M
20260414T12Z_MSC_GDPS_Rain-Accum6h_Sfc_LatLon0.15_PT048H.grib2 2026-04-14 16:13 2.4M
20260414T12Z_MSC_GDPS_Rain-Accum_Sfc_LatLon0.15_PT048H.grib2 2026-04-14 16:13 3.5M
20260414T12Z_MSC_GDPS_RelativeHumidity_AGL-2m_LatLon0.15_PT048H.grib2 2026-04-14 16:13 1.0M
20260414T12Z_MSC_GDPS_RelativeHumidity_IsbL-0010_LatLon0.15_PT048H.grib2 2026-04-14 16:13 261K
20260414T12Z_MSC_GDPS_RelativeHumidity_IsbL-0020_LatLon0.15_PT048H.grib2 2026-04-14 16:13 387K
20260414T12Z_MSC_GDPS_RelativeHumidity_IsbL-0030_LatLon0.15_PT048H.grib2 2026-04-14 16:13 384K
20260414T12Z_MSC_GDPS_RelativeHumidity_IsbL-0050_LatLon0.15_PT048H.grib2 2026-04-14 16:13 501K
20260414T12Z_MSC_GDPS_RelativeHumidity_IsbL-0100_LatLon0.15_PT048H.grib2 2026-04-14 16:13 494K
20260414T12Z_MSC_GDPS_RelativeHumidity_IsbL-0150_LatLon0.15_PT048H.grib2 2026-04-14 16:13 647K
20260414T12Z_MSC_GDPS_RelativeHumidity_IsbL-0175_LatLon0.15_PT048H.grib2 2026-04-14 16:13 768K
20260414T12Z_MSC_GDPS_RelativeHumidity_IsbL-0200_LatLon0.15_PT048H.grib2 2026-04-14 16:13 682K
20260414T12Z_MSC_GDPS_RelativeHumidity_IsbL-0225_LatLon0.15_PT048H.grib2 2026-04-14 16:13 781K
20260414T12Z_MSC_GDPS_RelativeHumidity_IsbL-0250_LatLon0.15_PT048H.grib2 2026-04-14 16:14 872K
20260414T12Z_MSC_GDPS_RelativeHumidity_IsbL-0275_LatLon0.15_PT048H.grib2 2026-04-14 16:13 895K
20260414T12Z_MSC_GDPS_RelativeHumidity_IsbL-0300_LatLon0.15_PT048H.grib2 2026-04-14 16:13 945K
20260414T12Z_MSC_GDPS_RelativeHumidity_IsbL-0350_LatLon0.15_PT048H.grib2 2026-04-14 16:13 969K
20260414T12Z_MSC_GDPS_RelativeHumidity_IsbL-0400_LatLon0.15_PT048H.grib2 2026-04-14 16:13 1.0M
20260414T12Z_MSC_GDPS_RelativeHumidity_IsbL-0450_LatLon0.15_PT048H.grib2 2026-04-14 16:13 1.0M
20260414T12Z_MSC_GDPS_RelativeHumidity_IsbL-0500_LatLon0.15_PT048H.grib2 2026-04-14 16:13 1.1M
20260414T12Z_MSC_GDPS_RelativeHumidity_IsbL-0550_LatLon0.15_PT048H.grib2 2026-04-14 16:13 1.1M
20260414T12Z_MSC_GDPS_RelativeHumidity_IsbL-0600_LatLon0.15_PT048H.grib2 2026-04-14 16:13 1.1M
20260414T12Z_MSC_GDPS_RelativeHumidity_IsbL-0650_LatLon0.15_PT048H.grib2 2026-04-14 16:13 1.1M
20260414T12Z_MSC_GDPS_RelativeHumidity_IsbL-0700_LatLon0.15_PT048H.grib2 2026-04-14 16:14 1.1M
20260414T12Z_MSC_GDPS_RelativeHumidity_IsbL-0750_LatLon0.15_PT048H.grib2 2026-04-14 16:13 1.2M
20260414T12Z_MSC_GDPS_RelativeHumidity_IsbL-0800_LatLon0.15_PT048H.grib2 2026-04-14 16:13 1.3M
20260414T12Z_MSC_GDPS_RelativeHumidity_IsbL-0850_LatLon0.15_PT048H.grib2 2026-04-14 16:13 1.3M
20260414T12Z_MSC_GDPS_RelativeHumidity_IsbL-0875_LatLon0.15_PT048H.grib2 2026-04-14 16:13 1.3M
20260414T12Z_MSC_GDPS_RelativeHumidity_IsbL-0900_LatLon0.15_PT048H.grib2 2026-04-14 16:13 1.3M
20260414T12Z_MSC_GDPS_RelativeHumidity_IsbL-0925_LatLon0.15_PT048H.grib2 2026-04-14 16:13 1.2M
20260414T12Z_MSC_GDPS_RelativeHumidity_IsbL-0950_LatLon0.15_PT048H.grib2 2026-04-14 16:13 1.2M
20260414T12Z_MSC_GDPS_RelativeHumidity_IsbL-0970_LatLon0.15_PT048H.grib2 2026-04-14 16:13 1.2M
20260414T12Z_MSC_GDPS_RelativeHumidity_IsbL-0985_LatLon0.15_PT048H.grib2 2026-04-14 16:13 1.1M
20260414T12Z_MSC_GDPS_RelativeHumidity_IsbL-1000_LatLon0.15_PT048H.grib2 2026-04-14 16:13 1.1M
20260414T12Z_MSC_GDPS_RelativeHumidity_IsbL-1015_LatLon0.15_PT048H.grib2 2026-04-14 16:13 1.1M
20260414T12Z_MSC_GDPS_RelativeVorticity_IsbL-0200_LatLon0.15_PT048H.grib2 2026-04-14 16:14 1.5M
20260414T12Z_MSC_GDPS_RelativeVorticity_IsbL-0250_LatLon0.15_PT048H.grib2 2026-04-14 16:13 1.3M
20260414T12Z_MSC_GDPS_RelativeVorticity_IsbL-0500_LatLon0.15_PT048H.grib2 2026-04-14 16:13 1.2M
20260414T12Z_MSC_GDPS_RelativeVorticity_IsbL-0700_LatLon0.15_PT048H.grib2 2026-04-14 16:14 1.3M
20260414T12Z_MSC_GDPS_RelativeVorticity_IsbL-0850_LatLon0.15_PT048H.grib2 2026-04-14 16:13 1.6M
20260414T12Z_MSC_GDPS_Runoff-Accum_Sfc_LatLon0.15_PT048H.grib2 2026-04-14 16:14 102K
20260414T12Z_MSC_GDPS_SensibleHeatNetFlux_Sfc_LatLon0.15_PT048H.grib2 2026-04-14 16:14 638K
20260414T12Z_MSC_GDPS_ShowalterIndex_IsbL-0500_LatLon0.15_PT048H.grib2 2026-04-14 16:13 6.2M
20260414T12Z_MSC_GDPS_Snow-Accum12h_Sfc_LatLon0.15_PT048H.grib2 2026-04-14 16:13 1.4M
20260414T12Z_MSC_GDPS_Snow-Accum1h_Sfc_LatLon0.15_PT048H.grib2 2026-04-14 16:13 1.0M
20260414T12Z_MSC_GDPS_Snow-Accum24h_Sfc_LatLon0.15_PT048H.grib2 2026-04-14 16:13 1.5M
20260414T12Z_MSC_GDPS_Snow-Accum3h_Sfc_LatLon0.15_PT048H.grib2 2026-04-14 16:13 912K
20260414T12Z_MSC_GDPS_Snow-Accum6h_Sfc_LatLon0.15_PT048H.grib2 2026-04-14 16:13 1.3M
20260414T12Z_MSC_GDPS_Snow-Accum_Sfc_LatLon0.15_PT048H.grib2 2026-04-14 16:13 1.7M
20260414T12Z_MSC_GDPS_SnowDensity_Sfc_LatLon0.15_PT048H.grib2 2026-04-14 16:13 265K
20260414T12Z_MSC_GDPS_SnowDepth_Sfc_LatLon0.15_PT048H.grib2 2026-04-14 16:13 1.8M
20260414T12Z_MSC_GDPS_SoilTemp_DBS-0to10cm_LatLon0.15_PT048H.grib2 2026-04-14 16:13 501K
20260414T12Z_MSC_GDPS_SoilTemp_Sfc_LatLon0.15_PT048H.grib2 2026-04-14 16:14 573K
20260414T12Z_MSC_GDPS_SoilVolumetricIceContent_Sfc_LatLon0.15_PT048H.grib2 2026-04-14 16:13 224K
20260414T12Z_MSC_GDPS_SoilVolumetricWaterContent_DBS-0to10cm_LatLon0.15_PT048H.grib2 2026-04-14 16:13 552K
20260414T12Z_MSC_GDPS_SoilVolumetricWaterContent_DBS-0to1cm_LatLon0.15_PT048H.grib2 2026-04-14 16:13 648K
20260414T12Z_MSC_GDPS_SpecificHumidity_AGL-120m_LatLon0.15_PT048H.grib2 2026-04-14 16:13 1.1M
20260414T12Z_MSC_GDPS_SpecificHumidity_AGL-2m_LatLon0.15_PT048H.grib2 2026-04-14 16:13 1.2M
20260414T12Z_MSC_GDPS_SpecificHumidity_AGL-40m_LatLon0.15_PT048H.grib2 2026-04-14 16:14 1.1M
20260414T12Z_MSC_GDPS_SpecificHumidity_AGL-80m_LatLon0.15_PT048H.grib2 2026-04-14 16:13 1.1M
20260414T12Z_MSC_GDPS_SpecificHumidity_IsbL-0001_LatLon0.15_PT048H.grib2 2026-04-14 16:13 1.2M
20260414T12Z_MSC_GDPS_SpecificHumidity_IsbL-0005_LatLon0.15_PT048H.grib2 2026-04-14 16:13 1.2M
20260414T12Z_MSC_GDPS_SpecificHumidity_IsbL-0010_LatLon0.15_PT048H.grib2 2026-04-14 16:14 1.3M
20260414T12Z_MSC_GDPS_SpecificHumidity_IsbL-0020_LatLon0.15_PT048H.grib2 2026-04-14 16:13 1.4M
20260414T12Z_MSC_GDPS_SpecificHumidity_IsbL-0030_LatLon0.15_PT048H.grib2 2026-04-14 16:14 1.3M
20260414T12Z_MSC_GDPS_SpecificHumidity_IsbL-0050_LatLon0.15_PT048H.grib2 2026-04-14 16:13 1.4M
20260414T12Z_MSC_GDPS_SpecificHumidity_IsbL-0100_LatLon0.15_PT048H.grib2 2026-04-14 16:13 1.3M
20260414T12Z_MSC_GDPS_SpecificHumidity_IsbL-0150_LatLon0.15_PT048H.grib2 2026-04-14 16:13 1.3M
20260414T12Z_MSC_GDPS_SpecificHumidity_IsbL-0175_LatLon0.15_PT048H.grib2 2026-04-14 16:13 1.3M
20260414T12Z_MSC_GDPS_SpecificHumidity_IsbL-0200_LatLon0.15_PT048H.grib2 2026-04-14 16:14 1.0M
20260414T12Z_MSC_GDPS_SpecificHumidity_IsbL-0225_LatLon0.15_PT048H.grib2 2026-04-14 16:13 1.2M
20260414T12Z_MSC_GDPS_SpecificHumidity_IsbL-0250_LatLon0.15_PT048H.grib2 2026-04-14 16:13 1.2M
20260414T12Z_MSC_GDPS_SpecificHumidity_IsbL-0275_LatLon0.15_PT048H.grib2 2026-04-14 16:14 1.1M
20260414T12Z_MSC_GDPS_SpecificHumidity_IsbL-0300_LatLon0.15_PT048H.grib2 2026-04-14 16:14 1.2M
20260414T12Z_MSC_GDPS_SpecificHumidity_IsbL-0350_LatLon0.15_PT048H.grib2 2026-04-14 16:13 1.2M
20260414T12Z_MSC_GDPS_SpecificHumidity_IsbL-0400_LatLon0.15_PT048H.grib2 2026-04-14 16:13 1.4M
20260414T12Z_MSC_GDPS_SpecificHumidity_IsbL-0450_LatLon0.15_PT048H.grib2 2026-04-14 16:13 1.3M
20260414T12Z_MSC_GDPS_SpecificHumidity_IsbL-0500_LatLon0.15_PT048H.grib2 2026-04-14 16:13 1.5M
20260414T12Z_MSC_GDPS_SpecificHumidity_IsbL-0550_LatLon0.15_PT048H.grib2 2026-04-14 16:13 1.3M
20260414T12Z_MSC_GDPS_SpecificHumidity_IsbL-0600_LatLon0.15_PT048H.grib2 2026-04-14 16:13 1.4M
20260414T12Z_MSC_GDPS_SpecificHumidity_IsbL-0650_LatLon0.15_PT048H.grib2 2026-04-14 16:13 1.5M
20260414T12Z_MSC_GDPS_SpecificHumidity_IsbL-0700_LatLon0.15_PT048H.grib2 2026-04-14 16:13 1.6M
20260414T12Z_MSC_GDPS_SpecificHumidity_IsbL-0750_LatLon0.15_PT048H.grib2 2026-04-14 16:13 1.7M
20260414T12Z_MSC_GDPS_SpecificHumidity_IsbL-0800_LatLon0.15_PT048H.grib2 2026-04-14 16:14 1.8M
20260414T12Z_MSC_GDPS_SpecificHumidity_IsbL-0850_LatLon0.15_PT048H.grib2 2026-04-14 16:13 1.9M
20260414T12Z_MSC_GDPS_SpecificHumidity_IsbL-0875_LatLon0.15_PT048H.grib2 2026-04-14 16:13 1.9M
20260414T12Z_MSC_GDPS_SpecificHumidity_IsbL-0900_LatLon0.15_PT048H.grib2 2026-04-14 16:13 1.6M
20260414T12Z_MSC_GDPS_SpecificHumidity_IsbL-0925_LatLon0.15_PT048H.grib2 2026-04-14 16:13 1.6M
20260414T12Z_MSC_GDPS_SpecificHumidity_IsbL-0950_LatLon0.15_PT048H.grib2 2026-04-14 16:13 1.5M
20260414T12Z_MSC_GDPS_SpecificHumidity_IsbL-0970_LatLon0.15_PT048H.grib2 2026-04-14 16:13 1.5M
20260414T12Z_MSC_GDPS_SpecificHumidity_IsbL-0985_LatLon0.15_PT048H.grib2 2026-04-14 16:14 1.5M
20260414T12Z_MSC_GDPS_SpecificHumidity_IsbL-1000_LatLon0.15_PT048H.grib2 2026-04-14 16:13 1.5M
20260414T12Z_MSC_GDPS_SpecificHumidity_IsbL-1015_LatLon0.15_PT048H.grib2 2026-04-14 16:13 1.4M
20260414T12Z_MSC_GDPS_SpecificHumidity_Sfc_LatLon0.15_PT048H.grib2 2026-04-14 16:13 662K
20260414T12Z_MSC_GDPS_Thickness_IsbL-0850to0700_LatLon0.15_PT048H.grib2 2026-04-14 16:13 469K
20260414T12Z_MSC_GDPS_Thickness_IsbL-1000to0500_LatLon0.15_PT048H.grib2 2026-04-14 16:13 374K
20260414T12Z_MSC_GDPS_Thickness_IsbL-1000to0850_LatLon0.15_PT048H.grib2 2026-04-14 16:13 492K
20260414T12Z_MSC_GDPS_TotalCloudCover_Sfc_LatLon0.15_PT048H.grib2 2026-04-14 16:13 835K
20260414T12Z_MSC_GDPS_TotalTotalsIndex_Sfc_LatLon0.15_PT048H.grib2 2026-04-14 16:13 6.2M
20260414T12Z_MSC_GDPS_UVIndex-ClearSky_Sfc_LatLon0.15_PT048H.grib2 2026-04-14 16:55 1.0M
20260414T12Z_MSC_GDPS_UVIndex_Sfc_LatLon0.15_PT048H.grib2 2026-04-14 16:55 1.4M
20260414T12Z_MSC_GDPS_UpwardLongwaveRadiationFlux_NTAtm_LatLon0.15_PT048H.grib2 2026-04-14 16:13 841K
20260414T12Z_MSC_GDPS_VerticalVelocity_IsbL-0200_LatLon0.15_PT048H.grib2 2026-04-14 16:13 1.1M
20260414T12Z_MSC_GDPS_VerticalVelocity_IsbL-0250_LatLon0.15_PT048H.grib2 2026-04-14 16:13 1.0M
20260414T12Z_MSC_GDPS_VerticalVelocity_IsbL-0500_LatLon0.15_PT048H.grib2 2026-04-14 16:13 1.0M
20260414T12Z_MSC_GDPS_VerticalVelocity_IsbL-0600_LatLon0.15_PT048H.grib2 2026-04-14 16:13 1.0M
20260414T12Z_MSC_GDPS_VerticalVelocity_IsbL-0700_LatLon0.15_PT048H.grib2 2026-04-14 16:13 1.4M
20260414T12Z_MSC_GDPS_VerticalVelocity_IsbL-0850_LatLon0.15_PT048H.grib2 2026-04-14 16:13 1.6M
20260414T12Z_MSC_GDPS_WindChill_Sfc_LatLon0.15_PT048H.grib2 2026-04-14 16:13 5.3M
20260414T12Z_MSC_GDPS_WindDir_AGL-10m_LatLon0.15_PT048H.grib2 2026-04-14 16:13 1.3M
20260414T12Z_MSC_GDPS_WindDir_AGL-120m_LatLon0.15_PT048H.grib2 2026-04-14 16:14 1.4M
20260414T12Z_MSC_GDPS_WindDir_AGL-40m_LatLon0.15_PT048H.grib2 2026-04-14 16:13 1.4M
20260414T12Z_MSC_GDPS_WindDir_AGL-80m_LatLon0.15_PT048H.grib2 2026-04-14 16:13 1.4M
20260414T12Z_MSC_GDPS_WindDir_IsbL-0001_LatLon0.15_PT048H.grib2 2026-04-14 16:13 644K
20260414T12Z_MSC_GDPS_WindDir_IsbL-0005_LatLon0.15_PT048H.grib2 2026-04-14 16:14 790K
20260414T12Z_MSC_GDPS_WindDir_IsbL-0010_LatLon0.15_PT048H.grib2 2026-04-14 16:13 850K
20260414T12Z_MSC_GDPS_WindDir_IsbL-0020_LatLon0.15_PT048H.grib2 2026-04-14 16:13 923K
20260414T12Z_MSC_GDPS_WindDir_IsbL-0030_LatLon0.15_PT048H.grib2 2026-04-14 16:13 888K
20260414T12Z_MSC_GDPS_WindDir_IsbL-0050_LatLon0.15_PT048H.grib2 2026-04-14 16:13 947K
20260414T12Z_MSC_GDPS_WindDir_IsbL-0100_LatLon0.15_PT048H.grib2 2026-04-14 16:13 1.0M
20260414T12Z_MSC_GDPS_WindDir_IsbL-0150_LatLon0.15_PT048H.grib2 2026-04-14 16:13 1.0M
20260414T12Z_MSC_GDPS_WindDir_IsbL-0175_LatLon0.15_PT048H.grib2 2026-04-14 16:13 1.0M
20260414T12Z_MSC_GDPS_WindDir_IsbL-0200_LatLon0.15_PT048H.grib2 2026-04-14 16:13 1.1M
20260414T12Z_MSC_GDPS_WindDir_IsbL-0225_LatLon0.15_PT048H.grib2 2026-04-14 16:13 1.1M
20260414T12Z_MSC_GDPS_WindDir_IsbL-0250_LatLon0.15_PT048H.grib2 2026-04-14 16:14 1.1M
20260414T12Z_MSC_GDPS_WindDir_IsbL-0275_LatLon0.15_PT048H.grib2 2026-04-14 16:13 1.2M
20260414T12Z_MSC_GDPS_WindDir_IsbL-0300_LatLon0.15_PT048H.grib2 2026-04-14 16:13 1.2M
20260414T12Z_MSC_GDPS_WindDir_IsbL-0350_LatLon0.15_PT048H.grib2 2026-04-14 16:13 1.2M
20260414T12Z_MSC_GDPS_WindDir_IsbL-0400_LatLon0.15_PT048H.grib2 2026-04-14 16:13 1.3M
20260414T12Z_MSC_GDPS_WindDir_IsbL-0450_LatLon0.15_PT048H.grib2 2026-04-14 16:13 1.3M
20260414T12Z_MSC_GDPS_WindDir_IsbL-0500_LatLon0.15_PT048H.grib2 2026-04-14 16:14 1.4M
20260414T12Z_MSC_GDPS_WindDir_IsbL-0550_LatLon0.15_PT048H.grib2 2026-04-14 16:13 1.4M
20260414T12Z_MSC_GDPS_WindDir_IsbL-0600_LatLon0.15_PT048H.grib2 2026-04-14 16:13 1.5M
20260414T12Z_MSC_GDPS_WindDir_IsbL-0650_LatLon0.15_PT048H.grib2 2026-04-14 16:13 1.5M
20260414T12Z_MSC_GDPS_WindDir_IsbL-0700_LatLon0.15_PT048H.grib2 2026-04-14 16:13 1.6M
20260414T12Z_MSC_GDPS_WindDir_IsbL-0750_LatLon0.15_PT048H.grib2 2026-04-14 16:13 1.7M
20260414T12Z_MSC_GDPS_WindDir_IsbL-0800_LatLon0.15_PT048H.grib2 2026-04-14 16:13 1.8M
20260414T12Z_MSC_GDPS_WindDir_IsbL-0850_LatLon0.15_PT048H.grib2 2026-04-14 16:13 1.9M
20260414T12Z_MSC_GDPS_WindDir_IsbL-0875_LatLon0.15_PT048H.grib2 2026-04-14 16:13 2.0M
20260414T12Z_MSC_GDPS_WindDir_IsbL-0900_LatLon0.15_PT048H.grib2 2026-04-14 16:14 2.0M
20260414T12Z_MSC_GDPS_WindDir_IsbL-0925_LatLon0.15_PT048H.grib2 2026-04-14 16:13 2.0M
20260414T12Z_MSC_GDPS_WindDir_IsbL-0950_LatLon0.15_PT048H.grib2 2026-04-14 16:13 2.0M
20260414T12Z_MSC_GDPS_WindDir_IsbL-0970_LatLon0.15_PT048H.grib2 2026-04-14 16:13 2.0M
20260414T12Z_MSC_GDPS_WindDir_IsbL-0985_LatLon0.15_PT048H.grib2 2026-04-14 16:13 2.0M
20260414T12Z_MSC_GDPS_WindDir_IsbL-1000_LatLon0.15_PT048H.grib2 2026-04-14 16:14 2.1M
20260414T12Z_MSC_GDPS_WindDir_IsbL-1015_LatLon0.15_PT048H.grib2 2026-04-14 16:13 2.0M
20260414T12Z_MSC_GDPS_WindGust-Max_AGL-10m_LatLon0.15_PT048H.grib2 2026-04-14 16:13 2.3M
20260414T12Z_MSC_GDPS_WindGust-Min_AGL-10m_LatLon0.15_PT048H.grib2 2026-04-14 16:13 2.2M
20260414T12Z_MSC_GDPS_WindGust_AGL-10m_LatLon0.15_PT048H.grib2 2026-04-14 16:13 2.2M
20260414T12Z_MSC_GDPS_WindSpeed_AGL-10m_LatLon0.15_PT048H.grib2 2026-04-14 16:13 1.1M
20260414T12Z_MSC_GDPS_WindSpeed_AGL-120m_LatLon0.15_PT048H.grib2 2026-04-14 16:13 1.2M
20260414T12Z_MSC_GDPS_WindSpeed_AGL-40m_LatLon0.15_PT048H.grib2 2026-04-14 16:13 1.2M
20260414T12Z_MSC_GDPS_WindSpeed_AGL-80m_LatLon0.15_PT048H.grib2 2026-04-14 16:13 1.2M
20260414T12Z_MSC_GDPS_WindSpeed_IsbL-0001_LatLon0.15_PT048H.grib2 2026-04-14 16:13 633K
20260414T12Z_MSC_GDPS_WindSpeed_IsbL-0005_LatLon0.15_PT048H.grib2 2026-04-14 16:13 688K
20260414T12Z_MSC_GDPS_WindSpeed_IsbL-0010_LatLon0.15_PT048H.grib2 2026-04-14 16:13 705K
20260414T12Z_MSC_GDPS_WindSpeed_IsbL-0020_LatLon0.15_PT048H.grib2 2026-04-14 16:13 672K
20260414T12Z_MSC_GDPS_WindSpeed_IsbL-0030_LatLon0.15_PT048H.grib2 2026-04-14 16:14 670K
20260414T12Z_MSC_GDPS_WindSpeed_IsbL-0050_LatLon0.15_PT048H.grib2 2026-04-14 16:14 916K
20260414T12Z_MSC_GDPS_WindSpeed_IsbL-0100_LatLon0.15_PT048H.grib2 2026-04-14 16:13 1.1M
20260414T12Z_MSC_GDPS_WindSpeed_IsbL-0150_LatLon0.15_PT048H.grib2 2026-04-14 16:14 928K
20260414T12Z_MSC_GDPS_WindSpeed_IsbL-0175_LatLon0.15_PT048H.grib2 2026-04-14 16:13 1.0M
20260414T12Z_MSC_GDPS_WindSpeed_IsbL-0200_LatLon0.15_PT048H.grib2 2026-04-14 16:14 1.0M
20260414T12Z_MSC_GDPS_WindSpeed_IsbL-0225_LatLon0.15_PT048H.grib2 2026-04-14 16:13 1.1M
20260414T12Z_MSC_GDPS_WindSpeed_IsbL-0250_LatLon0.15_PT048H.grib2 2026-04-14 16:13 1.1M
20260414T12Z_MSC_GDPS_WindSpeed_IsbL-0275_LatLon0.15_PT048H.grib2 2026-04-14 16:13 1.1M
20260414T12Z_MSC_GDPS_WindSpeed_IsbL-0300_LatLon0.15_PT048H.grib2 2026-04-14 16:13 1.1M
20260414T12Z_MSC_GDPS_WindSpeed_IsbL-0350_LatLon0.15_PT048H.grib2 2026-04-14 16:14 1.1M
20260414T12Z_MSC_GDPS_WindSpeed_IsbL-0400_LatLon0.15_PT048H.grib2 2026-04-14 16:13 1.1M
20260414T12Z_MSC_GDPS_WindSpeed_IsbL-0450_LatLon0.15_PT048H.grib2 2026-04-14 16:13 1.1M
20260414T12Z_MSC_GDPS_WindSpeed_IsbL-0500_LatLon0.15_PT048H.grib2 2026-04-14 16:13 1.1M
20260414T12Z_MSC_GDPS_WindSpeed_IsbL-0550_LatLon0.15_PT048H.grib2 2026-04-14 16:13 1.1M
20260414T12Z_MSC_GDPS_WindSpeed_IsbL-0600_LatLon0.15_PT048H.grib2 2026-04-14 16:13 1.4M
20260414T12Z_MSC_GDPS_WindSpeed_IsbL-0650_LatLon0.15_PT048H.grib2 2026-04-14 16:14 1.4M
20260414T12Z_MSC_GDPS_WindSpeed_IsbL-0700_LatLon0.15_PT048H.grib2 2026-04-14 16:13 1.6M
20260414T12Z_MSC_GDPS_WindSpeed_IsbL-0750_LatLon0.15_PT048H.grib2 2026-04-14 16:13 1.6M
20260414T12Z_MSC_GDPS_WindSpeed_IsbL-0800_LatLon0.15_PT048H.grib2 2026-04-14 16:13 1.6M
20260414T12Z_MSC_GDPS_WindSpeed_IsbL-0850_LatLon0.15_PT048H.grib2 2026-04-14 16:13 1.8M
20260414T12Z_MSC_GDPS_WindSpeed_IsbL-0875_LatLon0.15_PT048H.grib2 2026-04-14 16:13 1.9M
20260414T12Z_MSC_GDPS_WindSpeed_IsbL-0900_LatLon0.15_PT048H.grib2 2026-04-14 16:13 1.9M
20260414T12Z_MSC_GDPS_WindSpeed_IsbL-0925_LatLon0.15_PT048H.grib2 2026-04-14 16:13 1.9M
20260414T12Z_MSC_GDPS_WindSpeed_IsbL-0950_LatLon0.15_PT048H.grib2 2026-04-14 16:13 1.9M
20260414T12Z_MSC_GDPS_WindSpeed_IsbL-0970_LatLon0.15_PT048H.grib2 2026-04-14 16:13 1.9M
20260414T12Z_MSC_GDPS_WindSpeed_IsbL-0985_LatLon0.15_PT048H.grib2 2026-04-14 16:13 1.9M
20260414T12Z_MSC_GDPS_WindSpeed_IsbL-1000_LatLon0.15_PT048H.grib2 2026-04-14 16:14 1.9M
20260414T12Z_MSC_GDPS_WindSpeed_IsbL-1015_LatLon0.15_PT048H.grib2 2026-04-14 16:13 1.8M
20260414T12Z_MSC_GDPS_WindU_AGL-10m_LatLon0.15_PT048H.grib2 2026-04-14 16:13 1.6M
20260414T12Z_MSC_GDPS_WindU_AGL-120m_LatLon0.15_PT048H.grib2 2026-04-14 16:13 970K
20260414T12Z_MSC_GDPS_WindU_AGL-40m_LatLon0.15_PT048H.grib2 2026-04-14 16:13 966K
20260414T12Z_MSC_GDPS_WindU_AGL-80m_LatLon0.15_PT048H.grib2 2026-04-14 16:13 971K
20260414T12Z_MSC_GDPS_WindU_IsbL-0001_LatLon0.15_PT048H.grib2 2026-04-14 16:13 638K
20260414T12Z_MSC_GDPS_WindU_IsbL-0005_LatLon0.15_PT048H.grib2 2026-04-14 16:13 688K
20260414T12Z_MSC_GDPS_WindU_IsbL-0010_LatLon0.15_PT048H.grib2 2026-04-14 16:14 701K
20260414T12Z_MSC_GDPS_WindU_IsbL-0020_LatLon0.15_PT048H.grib2 2026-04-14 16:13 739K
20260414T12Z_MSC_GDPS_WindU_IsbL-0030_LatLon0.15_PT048H.grib2 2026-04-14 16:13 739K
20260414T12Z_MSC_GDPS_WindU_IsbL-0050_LatLon0.15_PT048H.grib2 2026-04-14 16:13 707K
20260414T12Z_MSC_GDPS_WindU_IsbL-0100_LatLon0.15_PT048H.grib2 2026-04-14 16:13 928K
20260414T12Z_MSC_GDPS_WindU_IsbL-0150_LatLon0.15_PT048H.grib2 2026-04-14 16:13 1.0M
20260414T12Z_MSC_GDPS_WindU_IsbL-0175_LatLon0.15_PT048H.grib2 2026-04-14 16:13 1.0M
20260414T12Z_MSC_GDPS_WindU_IsbL-0200_LatLon0.15_PT048H.grib2 2026-04-14 16:13 1.0M
20260414T12Z_MSC_GDPS_WindU_IsbL-0225_LatLon0.15_PT048H.grib2 2026-04-14 16:13 1.1M
20260414T12Z_MSC_GDPS_WindU_IsbL-0250_LatLon0.15_PT048H.grib2 2026-04-14 16:13 853K
20260414T12Z_MSC_GDPS_WindU_IsbL-0275_LatLon0.15_PT048H.grib2 2026-04-14 16:13 883K
20260414T12Z_MSC_GDPS_WindU_IsbL-0300_LatLon0.15_PT048H.grib2 2026-04-14 16:13 876K
20260414T12Z_MSC_GDPS_WindU_IsbL-0350_LatLon0.15_PT048H.grib2 2026-04-14 16:13 893K
20260414T12Z_MSC_GDPS_WindU_IsbL-0400_LatLon0.15_PT048H.grib2 2026-04-14 16:14 891K
20260414T12Z_MSC_GDPS_WindU_IsbL-0450_LatLon0.15_PT048H.grib2 2026-04-14 16:13 1.1M
20260414T12Z_MSC_GDPS_WindU_IsbL-0500_LatLon0.15_PT048H.grib2 2026-04-14 16:13 1.1M
20260414T12Z_MSC_GDPS_WindU_IsbL-0550_LatLon0.15_PT048H.grib2 2026-04-14 16:13 1.1M
20260414T12Z_MSC_GDPS_WindU_IsbL-0600_LatLon0.15_PT048H.grib2 2026-04-14 16:13 1.1M
20260414T12Z_MSC_GDPS_WindU_IsbL-0650_LatLon0.15_PT048H.grib2 2026-04-14 16:13 1.2M
20260414T12Z_MSC_GDPS_WindU_IsbL-0700_LatLon0.15_PT048H.grib2 2026-04-14 16:14 1.2M
20260414T12Z_MSC_GDPS_WindU_IsbL-0750_LatLon0.15_PT048H.grib2 2026-04-14 16:13 1.3M
20260414T12Z_MSC_GDPS_WindU_IsbL-0800_LatLon0.15_PT048H.grib2 2026-04-14 16:13 1.4M
20260414T12Z_MSC_GDPS_WindU_IsbL-0850_LatLon0.15_PT048H.grib2 2026-04-14 16:13 1.4M
20260414T12Z_MSC_GDPS_WindU_IsbL-0875_LatLon0.15_PT048H.grib2 2026-04-14 16:13 1.5M
20260414T12Z_MSC_GDPS_WindU_IsbL-0900_LatLon0.15_PT048H.grib2 2026-04-14 16:13 1.5M
20260414T12Z_MSC_GDPS_WindU_IsbL-0925_LatLon0.15_PT048H.grib2 2026-04-14 16:14 1.5M
20260414T12Z_MSC_GDPS_WindU_IsbL-0950_LatLon0.15_PT048H.grib2 2026-04-14 16:14 1.4M
20260414T12Z_MSC_GDPS_WindU_IsbL-0970_LatLon0.15_PT048H.grib2 2026-04-14 16:13 1.4M
20260414T12Z_MSC_GDPS_WindU_IsbL-0985_LatLon0.15_PT048H.grib2 2026-04-14 16:13 1.7M
20260414T12Z_MSC_GDPS_WindU_IsbL-1000_LatLon0.15_PT048H.grib2 2026-04-14 16:14 1.7M
20260414T12Z_MSC_GDPS_WindU_IsbL-1015_LatLon0.15_PT048H.grib2 2026-04-14 16:13 1.7M
20260414T12Z_MSC_GDPS_WindV_AGL-10m_LatLon0.15_PT048H.grib2 2026-04-14 16:14 1.6M
20260414T12Z_MSC_GDPS_WindV_AGL-120m_LatLon0.15_PT048H.grib2 2026-04-14 16:13 970K
20260414T12Z_MSC_GDPS_WindV_AGL-40m_LatLon0.15_PT048H.grib2 2026-04-14 16:13 965K
20260414T12Z_MSC_GDPS_WindV_AGL-80m_LatLon0.15_PT048H.grib2 2026-04-14 16:13 971K
20260414T12Z_MSC_GDPS_WindV_IsbL-0001_LatLon0.15_PT048H.grib2 2026-04-14 16:13 696K
20260414T12Z_MSC_GDPS_WindV_IsbL-0005_LatLon0.15_PT048H.grib2 2026-04-14 16:13 776K
20260414T12Z_MSC_GDPS_WindV_IsbL-0010_LatLon0.15_PT048H.grib2 2026-04-14 16:13 806K
20260414T12Z_MSC_GDPS_WindV_IsbL-0020_LatLon0.15_PT048H.grib2 2026-04-14 16:13 858K
20260414T12Z_MSC_GDPS_WindV_IsbL-0030_LatLon0.15_PT048H.grib2 2026-04-14 16:13 858K
20260414T12Z_MSC_GDPS_WindV_IsbL-0050_LatLon0.15_PT048H.grib2 2026-04-14 16:14 909K
20260414T12Z_MSC_GDPS_WindV_IsbL-0100_LatLon0.15_PT048H.grib2 2026-04-14 16:13 855K
20260414T12Z_MSC_GDPS_WindV_IsbL-0150_LatLon0.15_PT048H.grib2 2026-04-14 16:13 1.0M
20260414T12Z_MSC_GDPS_WindV_IsbL-0175_LatLon0.15_PT048H.grib2 2026-04-14 16:13 1.0M
20260414T12Z_MSC_GDPS_WindV_IsbL-0200_LatLon0.15_PT048H.grib2 2026-04-14 16:13 835K
20260414T12Z_MSC_GDPS_WindV_IsbL-0225_LatLon0.15_PT048H.grib2 2026-04-14 16:14 844K
20260414T12Z_MSC_GDPS_WindV_IsbL-0250_LatLon0.15_PT048H.grib2 2026-04-14 16:13 847K
20260414T12Z_MSC_GDPS_WindV_IsbL-0275_LatLon0.15_PT048H.grib2 2026-04-14 16:13 876K
20260414T12Z_MSC_GDPS_WindV_IsbL-0300_LatLon0.15_PT048H.grib2 2026-04-14 16:14 867K
20260414T12Z_MSC_GDPS_WindV_IsbL-0350_LatLon0.15_PT048H.grib2 2026-04-14 16:13 881K
20260414T12Z_MSC_GDPS_WindV_IsbL-0400_LatLon0.15_PT048H.grib2 2026-04-14 16:13 880K
20260414T12Z_MSC_GDPS_WindV_IsbL-0450_LatLon0.15_PT048H.grib2 2026-04-14 16:13 879K
20260414T12Z_MSC_GDPS_WindV_IsbL-0500_LatLon0.15_PT048H.grib2 2026-04-14 16:13 1.1M
20260414T12Z_MSC_GDPS_WindV_IsbL-0550_LatLon0.15_PT048H.grib2 2026-04-14 16:13 1.1M
20260414T12Z_MSC_GDPS_WindV_IsbL-0600_LatLon0.15_PT048H.grib2 2026-04-14 16:13 1.1M
20260414T12Z_MSC_GDPS_WindV_IsbL-0650_LatLon0.15_PT048H.grib2 2026-04-14 16:13 1.1M
20260414T12Z_MSC_GDPS_WindV_IsbL-0700_LatLon0.15_PT048H.grib2 2026-04-14 16:13 1.2M
20260414T12Z_MSC_GDPS_WindV_IsbL-0750_LatLon0.15_PT048H.grib2 2026-04-14 16:13 1.2M
20260414T12Z_MSC_GDPS_WindV_IsbL-0800_LatLon0.15_PT048H.grib2 2026-04-14 16:13 1.3M
20260414T12Z_MSC_GDPS_WindV_IsbL-0850_LatLon0.15_PT048H.grib2 2026-04-14 16:13 1.4M
20260414T12Z_MSC_GDPS_WindV_IsbL-0875_LatLon0.15_PT048H.grib2 2026-04-14 16:13 1.4M
20260414T12Z_MSC_GDPS_WindV_IsbL-0900_LatLon0.15_PT048H.grib2 2026-04-14 16:13 1.5M
20260414T12Z_MSC_GDPS_WindV_IsbL-0925_LatLon0.15_PT048H.grib2 2026-04-14 16:13 1.4M
20260414T12Z_MSC_GDPS_WindV_IsbL-0950_LatLon0.15_PT048H.grib2 2026-04-14 16:13 1.4M
20260414T12Z_MSC_GDPS_WindV_IsbL-0970_LatLon0.15_PT048H.grib2 2026-04-14 16:14 1.4M
20260414T12Z_MSC_GDPS_WindV_IsbL-0985_LatLon0.15_PT048H.grib2 2026-04-14 16:13 1.4M
20260414T12Z_MSC_GDPS_WindV_IsbL-1000_LatLon0.15_PT048H.grib2 2026-04-14 16:13 1.7M
20260414T12Z_MSC_GDPS_WindV_IsbL-1015_LatLon0.15_PT048H.grib2 2026-04-14 16:13 1.6M